Погода в Шадринске

Погода в Шадринске : погода сейчас, прогноз погоды и архив. Всё, что Вы хотите узнать о погоде в Шадринске!

Хотите узнать прогноз погоды в Шадринске? Тогда Вам сюда: Погода в Шадринске

Поиск расширенной информации на нашем сайте:

Другие новости

Новости СМИ2

Главная страница сайта

Новости сайта

03.07.2017

Напоминаем, что на нашем специализированном сайте Метеоцентр.Азия вы можете получить высокодетализированные автоматические прогнозы погоды по пунктам России, СНГ и мира в авиационном формате (включающие направление и скорость ветра, видимость, явления погоды, количество и форму облачности, нижнюю и верхнюю границу облачности).


Погода в Шадринске - сегодня

Время (UTC), дата Ветер
(°,м/с) 
Видим.   Явления Облачность Т
(°С)
Тd
(°С)
f(%) Тe
(°С)
Pmin
(гПа)
dP
(гПа)
Po
(мм)
O2
(г/м3)
Тmin Tmax R s Состояние
почвы
00 18.09.17 260 (З) 10 км    8/8 600 м кучево-дожд. 
[Cb cap]
+11.5 +7.1 74 +11  1012.6  -0.7  751  289           
03 18.09.17 260 (З) 10 км    9/9 600 м кучево-дожд. 
[Cb cap]
+12.2 +7.3 72 +12  1012.4  -0.2  751  289  +10        сухая 
18 18.09.17 260 (З) 10 км    ясно 
+5.3 +1.6 77 +6  1019.3  1.8  756  299           
21 18.09.17 280 (З) 10 км    ясно 
+3.6 +0.4 80 +3  1020.6  1.2  757  301           
00 19.09.17 280 (З) 10 км    4/3 600 м средняя 
[Sc|Ac trans]
+1.8 -0.2 87 +3  1022.2  1.5  758  304           
03 19.09.17 300 (СЗ) 10 км    10/8 600 м кучево-дожд., верхняя 
[Cb cap|Ci sp]
+4.3 +1.5 82 +5  1022.9  0.8  759  301  +0.7        сухая 
06 19.09.17 300 (СЗ) 10 км    9/9 600 м кучево-дожд. 
[Cb cap]
+9.1 +2.6 64 +10  1023.1  0.4  759  296           
09 19.09.17 200 (Ю) 10 км    10/10 600 м кучево-дожд. 
[Cb cap]
+11.3 +5.6 68 +12  1021.8  -1.2  758  292           
12 19.09.17 110 (В) 10 км    8/8 600 м кучево-дожд. 
[Cb cap]
+13.4 +7.1 66 +14  1019.5  -2.1  757  289           
18 19.09.17 060 (СВ) 10 км    8/6 600 м кучево-дожд., верхняя 
[Cb cap|Ci sp]
+8.8 +6.4 85 +9  1015.8  -2.2  754  293           
21 19.09.17 060 (СВ) 10 км    8/5 600 м кучево-дожд., верхняя 
[Cb cap|Ci sp]
+8.8 +6.6 86 +10  1013.9  -1.9  752  293           
00 20.09.17 240 (ЮЗ) 10 км    8/8 600 м кучево-дожд. 
[Cb cap]
+11.1 +8.6 85 +12  1012.8  -1  752  290           
03 20.09.17 220 (ЮЗ) 10 км    9/6 600 м кучево-дожд., средняя 
[Cb cap|Ac As]
+16.9 +8.8 59 +17  1012  -0.7  751  283  +8.5        сухая 
06 20.09.17 250 (З) 5{11}  10 км    9/8 600 м кучево-дожд., верхняя 
[Cb cap|Ci sp]
+20 +9.1 49 +20  1012.4  0.6  752  281           
12 20.09.17 310 (СЗ) 4{12}  10 км    9/8 600 м кучево-дожд., верхняя 
[Cb cap|Ci sp]
+20.5 +6.4 40 +21  1013.6  1.4  752  281           
18 20.09.17 270 (З) 10 км    8/8 600 м кучево-дожд. 
[Cb cap]
+11.7 +6.1 68 +13  1015.6  0.7  754  290           
21 20.09.17 270 (З) 10 км    8/8 600 м кучево-дожд. 
[Cb cap]
+11.3 +7.3 76 +12  1016.3  0.7  754  291           
00 21.09.17 250 (З) 10 км    8/8 600 м кучево-дожд. 
[Cb cap]
+10.1 +7 81 +11  1016.8  0.5  755  292           
03 21.09.17 270 (З) 10 км    4/4 600 м кучево-дожд. 
[Cb cap]
+11.3 +8.3 82 +12  1017.6  0.8  755  291  +9.7        сухая 
06 21.09.17 340 (С) 4{10}  10 км    9/9 600 м кучево-дожд. 
[Cb cap]
+14 +7.5 65 +14  1018.7  1.2  756  289           
09 21.09.17 360 (С) 10 км    9/9 600 м кучево-дожд. 
[Cb cap]
+12 +5.7 65 +11  1020.7  1.9  757  291           
12 21.09.17 010 (С) 10 км    9/9 600 м кучево-дожд. 
[Cb cap]
+10.6 +4.8 67 +10  1022.7  1.9  759  294           
18 21.09.17 010 (С) 10 км    10/10 600 м кучево-дожд. 
[Cb cap]
+8.3 +4.1 75 +8  1025.6  761  297           
21 21.09.17 360 (С) 10 км    10/10 600 м кучево-дожд. 
[Cb cap]
+7.9 +4 76 +8  1026.7  762  298           
00 22.09.17 340 (С) 10 км    10/10 600 м кучево-дожд. 
[Cb cap]
+7.4 +4.1 80 +7  1027.3  0.6  762  298           
Время (UTC), дата Ветер
(°,м/с) 
Видим.   Явления Облачность Т
(°С)
Тd
(°С)
f(%) Тe
(°С)
Pmin
(гПа)
dP
(гПа)
Po
(мм)
O2
(г/м3)
Тmin Tmax R s Состояние
почвы

Для получения пояснительной информации подведите курсор к названию столбца.

ПОГОДА в Шадринске - архив

Всё, что Вы хотите узнать о погоде в Шадринске - удобно и подробно!

Выберите нужную дату (начиная с 1 января 2015* года) и нажмите кнопку "Найти".
Будут отображены архивные сводки погоды по пункту Шадринск, начиная с указанной даты.


Отображать данные в формате CSV (для использования в таблицах Excel)


Внимание! Наш архив погоды предназначен исключительно для личного некоммерческого использования в познавательных целях. Если Вам необходимы официальные справки о состоянии погоды (для производственных, юридических, коммерческих и т.п. целей), обращайтесь в органы Росгидромета.

*Примечание: данная дата относится к архиву по метеостанциям СССР (Россия, СНГ, Балтия).
Архив по метеостанциям Зарубежной Европы и Азии (кроме Китая) хранится 10 дней, по другим регионам земного шара (Китай, Африка, Америка, Австралия, Океания) - 1 день.

Шадринск - район местоположения метеостанции


Название, широта, долгота, высота метеостанции:
Шадринск 56.1°ш. 63.6°д. 89 м над ур. моря [Российская Федерация]

Дополнительная информация

В oтличие oт бoльшинства пoгoдных сайтoв мы публикуем пoдрoбную метеoинфoрмацию в детальнoм прoфессиoнальнoм фoрмате.

Характеристики температуры и влажнoсти вoздуха измеряются на высoте 2 м в тени вдали oт зданий и деревьев.
Скoрoсть ветра измеряется на высoте 10 м (на урoвне рoста челoвека скoрoсть ветра ниже в 1.5-2 раза). Если метеoстанция нахoдится в гoрoде или в лесу, тo скoрoсть ветра занижена на 2-4 м/с пo сравнению с oткрытым местoм. Скoрoсть ветра над акватoриями крупных рек и oзёр, а также на вершинах хoлмoв на 2-5 м/с выше, чем в oбычных услoвиях.
Атмoсфернoе давление в разных тoчках местнoсти мoжет значительнo oтличаться oт давления на метеoстанции, в зависимoсти oт услoвий рельефа (при пoдъёме на 10 м давление пoнижается примернo на 1 мм рт.ст.).